EHI
0 0 0 0 0 0 0 0 0 0 0 0 0 0 0 0 0 0 0 0 0 0 0 0 0 0 0 0 0 0 0 0 0 0 0 0 0 0 0 0 0 0 0 0
0 0 0 0 0 0 0 0 0 0 0 0 0 0 0 0 0 0 0 0 0 0 0 0 0 0 0 0 0 0 0 0 0 0 0 0 0 0 0 0 0 0 0 0
0 0 0 0 0 0 0 0 0 0 0 0 0 0 0 0 0 0 0 0 0 0 0 0 0 0 0 0 0 0 0 0 0 0 0 0 0 0 0 0 0 0 0 0
0 0 0 0 0 0 0 0 0 0 0 0 0 0 0 0 0 0 0 0 0 0 0 0 0 0 0 0 0 0 0 0 0 0 0 0 0 0 0 0 0 0 0 0
0 0 0 0 0 0 0 0 0 0 0 0 0 0 0 0 0 0 0 0 0 0 0 0 0 0 0 0 0 0 0 0 0 0 0 0 0 0 0 0 0 0 0 0
0 0 0 0 0 0 0 0 0 0 0 0 0 0 0 0 0 0 0 0 0 0 0 0 0 0 0 0 0 0 0 0 0 0 0 0 0 0 0 0 0 0 0 0
0 0 0 0 0 0 0 0 0 0 0 0 0 0 0 0 0 0 0 0 0 0 0 0 0 0 0 0 0 0 0 0 0 0 0 0 0 0 0 0 0 0 0 0
0 0 0 0 0 0 0 0 0 0 0 0 0 0 0 0 0 0 0 0 0 0 0 0 0 0 0 0 0 0 0 0 0 0 0 0 0 0 0 0 0 0 0 0
0 0 0 0 0 0 0 0 0 0 0 0 0 0 0 0 0 0 0 0 0 0 0 0 0 0 0 0 0 0 0 0 0 0 0 0 0 0 0 0 0 0 0 0
0 0 0 0 0 0 0 0 0 0 0 0 0 0 0 0 0 0 0 0 0 0 0 0 0 0 0 0 0 0 0 0 0 0 0 0 0 0 0 0 0 0 0 0
0 0 0 0 0 0 0 0 0 0 0 0 0 0 0 0 0 0 0 0 0 0 0 0 0 0 0 0 0 0 0 0 0 0 0 0 0 0 0 0 0 0 0 0
0 0 0 0 0 0 0 0 0 0 0 0 0 0 0 0 0 0 0 0 0 0 0 0 0 0 0 0 0 0 0 0 0 0 0 0 0 0 0 0 0 0 0 0
0 0 0 0 0 0 0 0 0 0 0 0 0 0 0 0 0 0 0 0 0 0 0 0 0 0 0 0 0 0 0 0 0 0 0 0 0 0 0 0 0 0 0 0
0 0 0 0 0 0 0 0 0 0 0 0 0 0 0 0 0 0 0 0 0 0 0 0 0 0 0 0 0 0 0 0 0 0 0 0 0 0 0 0 0 0 0 0
0 0 0 0 0 0 0 0 0 0 0 0 0 0 0 0 0 0 0 0 0 0 0 0 0 0 0 0 0 0 0 0 0 0 0 0 0 0 0 0 0 0 0 0
0 0 0 0 0 0 0 0 0 0 0 0 0 0 0 0 0 0 0 0 0 0 0 0 0 0 0 0 0 0 0 0 0 0 0 0 0 0 0 0 0 0 0 0
0 0 0 0 0 0 0 0 0 0 0 0 0 0 0 0 0 0 0 0 0 0 0 0 0 0 0 0 0 0 0 0 0 0 0 0 0 0 0 0 0 0 0 0
0 0 0 0 0 0 0 0 0 0 0 0 0 0 0 0 0 0 0 0 0 0 0 0 0 0 0 0 0 0 0 0 0 0 0 0 0 0 0 0 0 0 0 0
0 0 0 0 0 0 0 0 0 0 0 0 0 0 0 0 0 0 0 0 0 0 0 0 0 0 0 0 0 0 0 0 0 0 0 0 0 0 0 0 0 0 0 0
0 0 0 0 0 0 0 0 0 0 0 0 0 0 0 0 0 0 0 0 0 0 0 0 0 0 0 0 0 0 0 0 0 0 0 0 0 0 0 0 0 0 0 0
0 0 0 0 0 0 0 0 0 0 0 0 0 0 0 0 0 0 0 0 0 0 0 0 0 0 0 0 0 0 0 0 0 0 0 0 0 0 0 0 0 0 0 0
0 0 0 0 0 0 0 0 0 0 0 0 0 0 0 0 0 0 0 0 0 0 0 0 0 0 0 0 0 0 0 0 0 0 0 0 0 0 0 0 0 0 0 0
0 0 0 0 0 0 0 0 0 0 0 0 0 0 0 0 0 0 0 0 0 0 0 0 0 0 0 0 0 0 0 0 0 0 0 0 0 0 0 0 0 0 0 0
0 0 0 0 0 0 0 0 0 0 0 0 0 0 0 0 0 0 0 0 0 0 0 0 0 0 0 0 0 0 0 0 0 0 0 0 0 0 0 0 0 0 0 0
0 0 0 0 0 0 0 0 0 0 0 0 0 0 0 0 0 0 0 0 0 0 0 0 0 0 0 0 0 0 0 0 0 0 0 0 0 0 0 0 0 0 0 0
0 0 0 0 0 0 0 0 0 0 0 0 0 0 0 0 0 0 0 0 0 0 0 0 0 0 0 0 0 0 0 0 0 0 0 0 0 0 0 0 0 0 0 0
0 0 0 0 0 0 0 0 0 0 0 0 0 0 0 0 0 0 0 0 0 0 0 0 0 0 0 0 0 0 0 0 0 0 0 0 0 0 0 0 0 0 0 0
Wind_Speed
6 3 3 5 5 7 8 8 7 5 5 4 3 3 2 3 3 3 3 3 3 4 3 3 3 2 2 1 0 0 0 1 2 3 3 4 5 5 5 5 6 6 5 5
8 6 5 8 9 8 9 8 8 7 5 2 4 2 1 2 3 3 3 3 3 3 3 3 3 3 3 2 1 1 0 1 1 2 2 3 4 4 4 5 5 5 5 5
9 6 6 9 11 12 9 8 6 6 2 2 1 0 0 1 2 2 2 2 2 2 2 2 2 3 3 3 2 1 1 1 1 1 2 3 4 4 4 4 4 4 5 5
7 6 8 1 3 4 7 8 7 4 1 0 1 1 2 2 1 2 3 3 3 2 2 1 2 2 2 2 2 1 1 0 1 1 2 2 3 4 4 3 3 3 3 3
6 8 6 5 5 5 5 5 5 4 2 1 1 2 2 4 3 3 3 3 3 2 2 1 1 1 1 2 2 2 1 0 0 1 0 2 2 3 3 3 4 3 3 3
5 6 5 5 9 5 2 3 5 4 2 2 1 1 3 5 5 4 4 3 3 2 1 2 1 1 2 1 1 2 2 1 0 0 1 2 2 2 3 3 3 3 2 2
8 7 2 7 8 4 3 2 4 4 3 2 1 3 5 6 5 5 4 4 3 2 1 1 1 1 2 1 0 1 1 0 1 2 2 2 2 2 3 3 3 3 3 2
7 8 3 9 7 3 3 5 4 4 3 3 4 5 5 5 5 5 4 3 2 2 1 1 1 1 2 1 0 1 1 1 2 3 3 2 2 3 3 3 4 4 3 2
2 2 5 3 4 3 3 3 3 3 3 2 3 3 3 3 4 4 4 3 3 2 2 2 2 2 2 1 1 1 2 3 4 4 4 3 3 3 3 3 3 3 2 2
2 3 6 4 4 3 2 2 3 3 2 2 2 3 2 2 3 4 3 3 2 2 2 2 2 2 2 1 1 3 4 4 4 4 4 4 3 3 3 3 3 3 2 2
6 3 4 5 5 4 4 3 3 3 3 3 3 3 2 2 3 3 3 2 2 1 1 1 1 2 2 2 2 4 4 5 5 4 4 3 3 4 4 4 4 3 3 2
5 5 6 6 9 7 6 5 4 4 4 4 3 3 3 3 3 3 3 3 2 1 1 1 1 0 0 1 2 4 4 4 3 2 3 3 3 4 7 8 9 10 9 6
4 0 2 7 8 8 7 6 5 4 4 4 4 3 4 4 4 4 4 3 3 2 2 2 3 3 3 2 2 4 4 4 3 3 3 3 3 4 4 6 10 12 12 11
4 5 5 6 6 7 7 7 6 6 5 5 4 4 4 5 5 4 4 4 4 4 4 4 4 5 6 5 4 4 4 4 4 3 3 4 4 4 4 4 4 4 10 16
4 4 4 5 7 7 7 7 7 7 6 6 5 4 5 5 5 5 5 5 5 5 5 6 6 6 6 7 7 6 4 3 3 4 4 4 4 4 4 5 4 4 4 6
6 5 6 7 8 9 9 9 8 7 7 6 6 5 5 6 6 5 5 5 6 6 6 7 7 6 7 7 7 6 5 7 6 4 4 4 4 4 4 4 4 4 4 3
8 9 9 10 9 9 9 8 7 8 8 7 6 6 6 7 6 6 5 6 6 7 7 7 7 7 7 8 7 6 5 6 7 5 4 4 4 5 5 4 4 4 4 4
7 8 9 10 9 8 8 8 8 8 8 7 7 7 6 6 6 6 5 5 6 7 7 6 6 6 6 8 7 6 6 5 5 5 4 4 5 5 5 5 6 6 5 5
3 4 5 7 8 8 8 8 8 8 8 8 7 7 6 6 6 6 6 6 6 6 5 6 8 7 6 8 9 5 5 6 5 5 5 7 7 6 6 6 6 7 6 6
2 4 5 6 7 8 8 9 9 8 8 8 8 7 7 6 6 6 7 6 5 4 4 5 6 6 7 8 10 5 6 6 6 6 6 6 6 6 6 7 7 7 7 7
4 5 6 7 8 8 8 9 8 8 7 7 7 7 7 6 5 5 5 5 4 4 4 5 4 5 6 8 8 5 5 6 6 6 6 6 7 7 7 7 8 8 8 8
5 6 7 7 8 8 7 7 8 8 7 6 6 6 6 6 6 5 5 4 4 4 2 3 3 6 9 9 4 4 4 5 5 5 5 6 6 6 7 7 7 7 8 8
6 6 7 8 8 8 8 7 7 7 6 6 5 5 5 4 3 3 3 3 3 4 2 2 4 7 10 5 3 3 4 4 4 4 5 5 5 5 6 6 6 7 6 7
6 7 7 7 7 8 7 7 6 5 5 5 4 4 4 3 3 3 4 5 4 2 0 0 3 6 7 3 2 2 3 3 3 3 4 4 4 4 5 5 6 6 6 7
6 6 7 6 6 5 6 6 6 5 5 4 4 4 3 3 3 3 3 3 3 2 1 2 4 6 4 2 3 3 3 2 3 3 3 3 3 4 4 4 5 5 6 6
5 4 4 4 4 3 3 4 4 4 4 3 3 3 3 3 3 2 2 2 2 2 2 2 2 3 2 2 2 3 3 4 4 3 3 4 4 4 4 5 6 5 5 6
5 4 3 3 3 3 3 3 3 3 3 3 3 3 3 2 2 2 2 1 1 1 1 1 2 2 2 2 3 3 3 3 3 3 3 4 4 4 5 6 5 5 5 6
Wind_Direction
286 290 277 269 239 208 228 253 277 315 340 348 47 66 96 136 154 166 172 177 177 178 181 176 183 150 133 135 259 298 347 5 12 4 5 355 343 341 352 352 350 351 0 4
279 260 247 254 245 231 226 240 261 282 292 23 74 74 93 150 156 165 178 184 188 181 172 192 174 159 163 171 205 244 144 51 28 5 355 343 333 338 350 349 344 352 359 8
280 254 232 249 230 220 222 223 235 256 279 47 52 100 109 118 137 158 169 171 173 191 184 193 152 146 156 167 192 215 163 120 62 15 352 341 342 346 342 342 348 355 359 11
271 248 248 125 72 181 210 219 221 232 254 38 355 85 116 109 117 138 145 147 158 184 172 166 151 141 152 167 174 163 100 81 112 59 351 339 337 331 330 337 348 351 355 356
263 263 253 169 161 166 196 215 207 215 192 159 130 185 165 129 104 89 101 118 125 147 147 159 123 121 187 194 162 150 129 292 148 135 279 309 317 321 324 336 337 334 336 334
265 268 279 113 119 126 213 226 168 167 158 144 196 222 112 107 104 96 92 97 108 131 156 150 134 133 257 246 155 148 161 219 197 187 239 262 289 302 303 308 312 315 321 336
262 266 262 115 117 132 220 111 112 120 117 122 101 68 93 102 103 102 105 109 124 156 158 138 138 183 257 273 86 117 139 195 230 230 239 236 247 269 284 292 302 305 310 308
225 243 226 140 151 176 94 90 84 87 82 86 83 84 93 100 111 120 125 129 142 165 168 164 171 221 260 250 132 121 168 237 253 253 258 254 235 252 265 275 282 283 286 290
211 122 98 120 113 87 65 93 90 81 75 90 108 108 109 118 123 128 134 142 154 177 193 188 184 216 266 244 191 214 227 237 242 244 241 232 233 247 255 260 265 274 279 285
261 171 159 156 134 124 110 96 88 87 94 104 117 111 110 116 114 114 122 132 149 177 208 212 192 192 244 263 243 239 243 246 244 241 244 233 218 228 239 252 265 276 281 282
249 192 158 172 172 163 151 146 136 118 106 96 99 97 95 94 90 95 101 108 122 170 226 250 218 192 210 232 255 263 260 255 250 237 233 241 233 223 228 229 218 227 251 272
238 213 208 187 171 170 167 163 155 145 129 113 105 103 96 87 80 78 84 87 98 103 302 308 325 17 5 250 256 273 278 279 278 270 247 234 241 250 236 232 232 228 227 229
257 24 97 118 140 159 163 157 154 145 132 125 111 102 98 90 81 74 72 69 60 48 32 13 13 17 7 352 318 292 285 285 281 278 275 260 248 246 259 253 242 243 241 238
128 124 138 154 158 165 165 160 153 141 127 117 109 105 101 94 86 76 66 65 58 50 41 31 27 20 2 353 336 311 300 294 296 283 275 270 265 260 253 252 251 245 237 234
196 199 179 157 158 165 163 162 157 148 137 126 115 111 108 103 93 79 65 61 63 55 42 35 30 16 360 355 345 328 316 308 306 300 289 283 278 274 269 265 261 256 249 230
202 190 164 166 174 175 174 172 164 152 141 131 124 118 110 104 97 88 75 64 65 60 47 37 26 6 1 2 346 332 322 321 317 303 297 296 293 289 286 279 273 268 261 249
191 191 188 187 186 185 178 170 159 149 142 136 130 123 117 112 103 93 85 77 71 63 49 37 18 360 9 11 351 336 328 326 326 319 312 311 310 306 303 300 296 291 280 268
205 202 195 188 182 176 166 155 146 141 137 133 131 128 123 119 112 103 92 85 81 67 47 30 11 359 19 18 354 338 335 336 337 337 334 333 326 320 320 319 318 315 310 305
201 190 178 170 164 158 152 145 140 135 133 136 135 126 116 108 103 99 89 76 69 61 39 18 7 14 22 13 356 338 340 343 346 346 346 344 344 344 342 340 337 334 332 333
147 144 138 136 136 135 133 133 133 134 136 138 132 126 122 117 112 106 96 86 69 48 30 17 17 22 17 2 353 347 350 354 357 355 355 354 351 351 350 349 347 347 347 347
134 133 132 132 128 127 131 134 134 135 136 137 133 129 124 117 111 106 104 98 80 41 14 23 35 26 9 348 345 354 358 1 3 2 1 358 355 354 354 355 354 353 353 352
141 140 141 137 136 137 137 136 137 137 134 129 128 127 125 121 114 103 96 100 97 61 23 33 40 12 352 344 340 354 360 3 4 1 358 355 355 354 355 354 352 353 353 351
155 154 151 151 153 147 141 139 140 138 137 138 137 133 123 111 115 122 118 103 94 67 40 37 12 349 343 339 336 354 0 3 2 356 350 348 348 348 349 349 347 346 346 346
164 161 158 157 153 149 148 142 135 135 136 132 131 131 131 132 127 113 112 119 122 118 74 11 328 328 328 318 332 355 356 352 345 337 334 336 338 338 340 339 338 337 337 339
166 162 160 158 157 153 150 146 145 146 148 149 150 149 141 128 127 125 127 140 155 188 226 260 291 301 298 311 343 345 335 325 322 317 315 320 324 325 327 329 331 329 329 330
165 158 154 159 149 137 147 154 160 161 166 162 154 149 140 135 136 143 159 181 196 208 236 252 267 276 301 335 329 317 313 318 324 324 325 326 328 328 324 324 324 322 319 318
163 150 144 154 146 158 168 169 168 168 167 161 156 149 145 147 156 169 185 206 216 231 253 276 294 302 307 301 297 300 308 315 319 321 323 324 320 319 320 322 318 316 315 313